Location: Silent Lake
(44.9206°N, 78.0708°W)
Time: 13:45:55
(UTC-04:00)

Cosmos 1939 Rocket - Pass Details

Date: 19 April 2018
Orbit: 534 x 584 km, 97.5° (Epoch: 23 May)

Event Time Altitude Azimuth Distance (km) Brightness Sun altitude
Exits shadow 21:16:11 - 180° (S) 2,482 5.9 -12.7°
Reaches altitude 10° 21:17:52 10° 185° (S) 1,786 5.2 -12.9°
Maximum altitude 21:21:36 49° 261° (W) 706 3.7 -13.5°
Drops below altitude 10° 21:25:25 10° 337° (NNW) 1,818 6.3 -14.1°
Sets 21:27:37 0° 343° (NNW) 2,722 7.2 -14.4°
